Regional Weather Roundup
Issued by NWS Goodland, KS

Home | Current Version | Previous Version | Graphics & Text | Print | Product List | Glossary On
Versions: 1 2 3 4 5 6 7 8 9 10 11 12 13 14 15 16 17 18 19 20 21 22 23 24 25 26 27 28 29 30 31 32 33 34 35 36 37 38 39 40 41 42 43 44 45 46 47 48 49 50
000
ASUS43 KGLD 300108
RWRGLD

GOODLAND FORECAST AREA HOURLY WEATHER ROUNDUP
NATIONAL WEATHER SERVICE GOODLAND KS
700 PM MDT THU SEP 29 2016

...OFFICIAL OBSERVATIONS...

CITY           SKY/WX    TMP DP  RH WIND       PRES   REMARKS
GOODLAND KS    CLEAR     63  41  44 SE9       30.28S
HILL CITY KS   CLEAR     56  46  69 E6        30.32S
IMPERIAL NEB   CLEAR     63  40  42 SE13      30.27F
MCCOOK NEB     CLEAR     60  42  51 SE8       30.29F
AKRON CO       CLEAR     68  40  35 SE16      30.25S
BURLINGTON CO    N/A     64  41  42 SE13      30.28F
LIMON CO       CLEAR     68  40  35 SE18      30.29S
$$

...UNOFFICIAL OBSERVATIONS...

CITY           SKY/WX    TMP DP  RH WIND       PRES   REMARKS
COLBY KS       CLEAR     63  43  48 E9        30.30F
LENORA KS        N/A     57  32  39 MISG        N/A
NORTON KS      CLEAR     55  39  54 E5        30.31S
SHARON SPRINGS   N/A     63  44  50 SE10        N/A
KIT CARSON CO    N/A     67  44  43 MISG        N/A
$$




USA.gov is the U.S. government's official web portal to all federal, state and local government web resources and services.